Quemado, NM

6:16 AM MST on February 25, 2017 (GMT -0700)
Lordsburg

Weather History for KLSB - November, 2013

Change the Weather History Date:

Friday, November 15, 2013

  Actual Average Record
Temperature  
Mean Temperature 54 °F -  
Max Temperature 71 °F 66 °F 71 °F (2013)
Min Temperature 37 °F 31 °F 37 °F (2013)
Degree Days  
Heating Degree Days 11    
Growing Degree Days 4 (Base 50)    
Moisture  
Dew Point 40 °F    
Average Humidity 57    
Maximum Humidity 81    
Minimum Humidity 27    
Precipitation  
Precipitation 0.00 in - - ()
Sea Level Pressure  
Sea Level Pressure 29.87 in    
Wind  
Wind Speed 8 mph (South)    
Max Wind Speed 21 mph    
Max Gust Speed 31 mph    
Visibility 10 miles    
Events Rain , Thunderstorm    
Averages and records for this station are not official NWS values.
T = Trace of Precipitation, MM = Missing Value Source: NWS Daily Summary

Daily Weather History Graph

Daily Weather History Graph

Search for Another Location

Airport or City:

Trip Planner

Search our weather history database for the weather conditions in past years. The results will help you decide how hot, cold, wet, or windy it might be!

Date:

Astronomy

Nov. 15, 2013 Rise Set
Actual Time 6:48 AM MST 5:10 PM MST
Civil Twilight 6:21 AM MST 5:36 PM MST
Nautical Twilight 5:51 AM MST 6:07 PM MST
Astronomical Twilight 5:21 AM MST 6:37 PM MST
Moon 4:05 PM MST (11/15) 4:52 AM MST (11/15)
Length of Visible Light 11h 15m
Length of Day
10h 22m
Waxing Gibbous, 97% of the Moon is Illuminated
Nov 15
Waxing Gibbous
Nov 17
Full
Nov 25
Last Quarter
Dec 2
New
Dec 9
First Quarter

Hourly Weather History & Observations

Time (MST) Temp. Windchill Dew Point Humidity Pressure Visibility Wind Dir Wind Speed Gust Speed Precip Events Conditions
12:15 AM 42.8 °F 38.6 °F 30.2 °F 61% 29.98 in 10.0 mi SSE 6.9 mph - N/A   Clear
12:35 AM 44.6 °F 40.7 °F 30.2 °F 57% 29.97 in 10.0 mi SSE 6.9 mph - N/A   Clear
12:55 AM 42.8 °F - 30.2 °F 61% 29.97 in 10.0 mi Calm Calm - N/A   Clear
1:15 AM 42.8 °F - 30.2 °F 61% 29.97 in 10.0 mi Calm Calm - N/A   Clear
1:35 AM 41.0 °F 39.0 °F 30.2 °F 65% 29.97 in 10.0 mi SSE 3.5 mph - N/A   Clear
1:55 AM 41.0 °F 38.0 °F 30.2 °F 65% 29.97 in 10.0 mi ESE 4.6 mph - N/A   Clear
2:15 AM 41.0 °F 36.4 °F 30.2 °F 65% 29.97 in 10.0 mi SE 6.9 mph - N/A   Clear
2:35 AM 42.8 °F 38.6 °F 32.0 °F 66% 29.96 in 10.0 mi SE 6.9 mph - N/A   Clear
2:55 AM 41.0 °F 38.0 °F 32.0 °F 70% 29.95 in 10.0 mi SE 4.6 mph - N/A   Clear
3:15 AM 41.0 °F 37.1 °F 32.0 °F 70% 29.95 in 10.0 mi SSE 5.8 mph - N/A   Clear
3:35 AM 37.4 °F 33.8 °F 32.0 °F 81% 29.95 in 10.0 mi SSE 4.6 mph - N/A   Clear
3:55 AM 39.2 °F 35.0 °F 32.0 °F 75% 29.94 in 10.0 mi ESE 5.8 mph - N/A   Clear
4:15 AM 41.0 °F 37.1 °F 32.0 °F 70% 29.94 in 10.0 mi SE 5.8 mph - N/A   Clear
4:35 AM 41.0 °F 36.4 °F 32.0 °F 70% 29.93 in 10.0 mi SE 6.9 mph - N/A   Clear
4:55 AM 41.0 °F 37.1 °F 32.0 °F 70% 29.94 in 10.0 mi South 5.8 mph - N/A   Clear
5:15 AM 41.0 °F 39.0 °F 32.0 °F 70% 29.94 in 10.0 mi SSW 3.5 mph - N/A   Clear
5:35 AM 41.0 °F 37.1 °F 32.0 °F 70% 29.94 in 10.0 mi South 5.8 mph - N/A   Clear
5:55 AM 42.8 °F 39.3 °F 33.8 °F 70% 29.94 in 10.0 mi South 5.8 mph - N/A   Clear
6:15 AM 41.0 °F 36.4 °F 33.8 °F 76% 29.94 in 10.0 mi SE 6.9 mph - N/A   Clear
6:35 AM 42.8 °F 39.3 °F 33.8 °F 70% 29.94 in 10.0 mi ESE 5.8 mph - N/A   Clear
6:55 AM 44.6 °F 43.1 °F 35.6 °F 71% 29.95 in 10.0 mi SE 3.5 mph - N/A   Clear
7:15 AM 44.6 °F - 35.6 °F 71% 29.96 in 10.0 mi Calm Calm - N/A   Clear
7:35 AM 44.6 °F - 35.6 °F 71% 29.96 in 10.0 mi Calm Calm - N/A   Clear
7:55 AM 50.0 °F - 41.0 °F 71% 29.95 in 10.0 mi South 3.5 mph - N/A   Clear
8:15 AM 50.0 °F - 41.0 °F 71% 29.95 in 10.0 mi ESE 3.5 mph - N/A   Clear
8:35 AM 51.8 °F - 41.0 °F 67% 29.95 in 10.0 mi Calm Calm - N/A   Clear
8:55 AM 55.4 °F - 42.8 °F 63% 29.96 in 10.0 mi SSE 3.5 mph - N/A   Clear
9:15 AM 55.4 °F - 44.6 °F 67% 29.95 in 10.0 mi East 5.8 mph - N/A   Clear
9:35 AM 59.0 °F - 44.6 °F 59% 29.95 in 10.0 mi ESE 4.6 mph - N/A   Clear
9:55 AM 60.8 °F - 46.4 °F 59% 29.95 in 10.0 mi ENE 4.6 mph - N/A   Mostly Cloudy
10:15 AM 64.4 °F - 46.4 °F 52% 29.94 in 10.0 mi SSW 13.8 mph 19.6 mph N/A   Scattered Clouds
10:35 AM 62.6 °F - 46.4 °F 55% 29.93 in 10.0 mi SSW 10.4 mph - N/A   Mostly Cloudy
10:55 AM 64.4 °F - 46.4 °F 52% 29.93 in 10.0 mi SW 16.1 mph - N/A   Mostly Cloudy
11:15 AM 66.2 °F - 46.4 °F 49% 29.93 in 10.0 mi SW 11.5 mph 17.3 mph N/A Thunderstorm Thunderstorm
11:35 AM 64.4 °F - 44.6 °F 49% 29.91 in 10.0 mi WSW 8.1 mph - N/A   Overcast
11:55 AM 66.2 °F - 44.6 °F 46% 29.89 in 10.0 mi SW 12.7 mph 17.3 mph N/A   Scattered Clouds
12:15 PM 66.2 °F - 44.6 °F 46% 29.88 in 10.0 mi SSW 15.0 mph - N/A Thunderstorm Scattered Clouds
12:35 PM 69.8 °F - 44.6 °F 40% 29.85 in 10.0 mi South 16.1 mph 25.3 mph N/A Thunderstorm Scattered Clouds
12:55 PM 68.0 °F - 44.6 °F 43% 29.84 in 10.0 mi SSW 18.4 mph 24.2 mph N/A Thunderstorm Thunderstorm
1:15 PM 68.0 °F - 42.8 °F 40% 29.83 in 10.0 mi SW 20.7 mph 29.9 mph N/A   Scattered Clouds
1:35 PM 68.0 °F - 42.8 °F 40% 29.83 in 10.0 mi SSW 19.6 mph 26.5 mph N/A   Mostly Cloudy
1:55 PM 69.8 °F - 42.8 °F 38% 29.82 in 10.0 mi SSW 15.0 mph 21.9 mph N/A Thunderstorm Mostly Cloudy
2:15 PM 71.6 °F - 35.6 °F 27% 29.81 in 10.0 mi WSW 18.4 mph 28.8 mph N/A Thunderstorm Mostly Cloudy
2:35 PM 69.8 °F - 39.2 °F 33% 29.80 in 10.0 mi SSW 13.8 mph 27.6 mph N/A Thunderstorm Mostly Cloudy
2:55 PM 68.0 °F - 42.8 °F 40% 29.79 in 10.0 mi SSW 16.1 mph 20.7 mph N/A   Scattered Clouds
3:15 PM 68.0 °F - 41.0 °F 37% 29.79 in 10.0 mi SSW 16.1 mph 21.9 mph N/A   Scattered Clouds
3:35 PM 66.2 °F - 41.0 °F 40% 29.78 in 7.0 mi SW 19.6 mph 28.8 mph N/A   Scattered Clouds
3:55 PM 66.2 °F - 39.2 °F 37% 29.77 in 7.0 mi SW 16.1 mph 25.3 mph N/A   Scattered Clouds
4:15 PM 66.2 °F - 37.4 °F 35% 29.76 in 10.0 mi SW 17.3 mph 23.0 mph N/A   Clear
4:35 PM 64.4 °F - 39.2 °F 40% 29.76 in 10.0 mi SW 12.7 mph 17.3 mph N/A   Clear
4:55 PM 64.4 °F - 41.0 °F 42% 29.76 in 10.0 mi SW 9.2 mph - N/A   Clear
5:15 PM 64.4 °F - 39.2 °F 40% 29.76 in 10.0 mi SW 6.9 mph - N/A   Clear
5:35 PM 62.6 °F - 39.2 °F 42% 29.77 in 10.0 mi SSW 6.9 mph - N/A   Clear
5:55 PM 62.6 °F - 41.0 °F 45% 29.77 in 10.0 mi SSW 8.1 mph - N/A   Scattered Clouds
6:15 PM 62.6 °F - 41.0 °F 45% 29.77 in 10.0 mi SSW 10.4 mph - N/A   Overcast
6:35 PM 62.6 °F - 41.0 °F 45% 29.77 in 10.0 mi South 8.1 mph - N/A   Overcast
6:55 PM 62.6 °F - 44.6 °F 52% 29.78 in 10.0 mi SSW 20.7 mph 31.1 mph N/A   Overcast
7:15 PM 60.8 °F - 44.6 °F 55% 29.78 in 10.0 mi SSW 18.4 mph 25.3 mph N/A   Overcast
7:35 PM 60.8 °F - 42.8 °F 52% 29.78 in 10.0 mi SSW 13.8 mph - N/A   Mostly Cloudy
7:55 PM 59.0 °F - 42.8 °F 55% 29.78 in 10.0 mi SSW 12.7 mph - N/A   Mostly Cloudy
8:15 PM 59.0 °F - 41.0 °F 51% 29.78 in 10.0 mi South 9.2 mph - N/A   Mostly Cloudy
8:35 PM 59.0 °F - 42.8 °F 55% 29.78 in 10.0 mi South 10.4 mph - N/A   Overcast
8:55 PM 59.0 °F - 42.8 °F 55% 29.79 in 10.0 mi SSW 11.5 mph - N/A   Overcast
9:15 PM 59.0 °F - 42.8 °F 55% 29.79 in 10.0 mi SSW 12.7 mph 17.3 mph N/A   Mostly Cloudy
9:35 PM 57.2 °F - 44.6 °F 63% 29.80 in 10.0 mi SSW 11.5 mph 16.1 mph N/A   Mostly Cloudy
9:55 PM 57.2 °F - 44.6 °F 63% 29.80 in 10.0 mi SSW 16.1 mph 20.7 mph N/A   Overcast
10:15 PM 57.2 °F - 44.6 °F 63% 29.80 in 10.0 mi SSW 15.0 mph 23.0 mph N/A   Overcast
10:35 PM 57.2 °F - 46.4 °F 67% 29.79 in 10.0 mi SSW 17.3 mph 20.7 mph N/A   Overcast
10:55 PM 57.2 °F - 46.4 °F 67% 29.79 in 10.0 mi SSW 15.0 mph 20.7 mph N/A   Overcast
11:15 PM 57.2 °F - 46.4 °F 67% 29.79 in 10.0 mi SW 16.1 mph 24.2 mph N/A Thunderstorm Overcast
11:35 PM 57.2 °F - 48.2 °F 72% 29.79 in 10.0 mi SW 12.7 mph 23.0 mph N/A Rain , Thunderstorm Light Thunderstorms and Rain
11:55 PM 55.4 °F - 48.2 °F 77% 29.78 in 10.0 mi SW 10.4 mph - N/A Thunderstorm Thunderstorm